�������l�o���
Date,Time,MP-1(��Sv/h),MP-2(��Sv/h),MP-3(��Sv/h),MP-4(��Sv/h),MP-5(��Sv/h),MP-6(��Sv/h),MP-7(��Sv/h),MP-8(��Sv/h),����,����(m/s),���J
2018/04/19,00:00,0.826,1.368,0.858,1.587,1.088,0.473,0.831,0.800,���k��,4.3,��
2018/04/19,00:10,0.826,1.366,0.859,1.589,1.087,0.473,0.831,0.801,�k��,5.6,��
2018/04/19,00:20,0.830,1.368,0.859,1.588,1.086,0.474,0.832,0.800,���k��,6.3,��
2018/04/19,00:30,0.828,1.368,0.859,1.586,1.088,0.474,0.833,0.799,���k��,6.5,��
2018/04/19,00:40,0.829,1.367,0.861,1.588,1.088,0.473,0.832,0.800,���k��,6.0,��
2018/04/19,00:50,0.829,1.367,0.860,1.588,1.088,0.474,0.832,0.801,���k��,4.9,��
2018/04/19,01:00,0.829,1.368,0.858,1.591,1.088,0.474,0.832,0.800,���k��,5.0,��
2018/04/19,01:10,0.828,1.370,0.859,1.590,1.087,0.474,0.835,0.801,��,4.5,��
2018/04/19,01:20,0.828,1.367,0.859,1.590,1.090,0.473,0.832,0.800,��,3.6,��
2018/04/19,01:30,0.829,1.369,0.860,1.589,1.088,0.474,0.833,0.801,���쐼,4.2,��
2018/04/19,01:40,0.828,1.367,0.858,1.588,1.090,0.472,0.833,0.799,���쐼,3.6,��
2018/04/19,01:50,0.827,1.366,0.860,1.589,1.088,0.473,0.833,0.798,�k��,0.9,��
2018/04/19,02:00,0.827,1.369,0.859,1.588,1.086,0.474,0.834,0.800,�k�k��,1.4,��
2018/04/19,02:10,0.827,1.369,0.858,1.590,1.086,0.475,0.833,0.800,�k�k��,2.3,��
2018/04/19,02:20,0.829,1.367,0.858,1.589,1.089,0.474,0.834,0.800,�k,2.3,��
2018/04/19,02:30,0.829,1.367,0.859,1.589,1.090,0.473,0.832,0.799,�k�k��,2.6,��
2018/04/19,02:40,0.829,1.369,0.858,1.589,1.086,0.474,0.834,0.800,�k��,2.2,��
2018/04/19,02:50,0.828,1.369,0.859,1.590,1.088,0.472,0.833,0.801,�k��,1.5,��
2018/04/19,03:00,0.827,1.367,0.860,1.590,1.088,0.474,0.833,0.799,�k��,2.3,��
2018/04/19,03:10,0.828,1.369,0.858,1.590,1.089,0.473,0.833,0.800,�k��,1.9,��
2018/04/19,03:20,0.828,1.368,0.856,1.587,1.088,0.474,0.832,0.801,�k��,1.5,��
2018/04/19,03:30,0.829,1.368,0.859,1.591,1.088,0.472,0.835,0.800,�k��,1.7,��
2018/04/19,03:40,0.826,1.370,0.858,1.590,1.088,0.473,0.832,0.802,�k��,3.8,��
2018/04/19,03:50,0.828,1.368,0.858,1.589,1.091,0.471,0.833,0.801,�k��,4.1,��
2018/04/19,04:00,0.827,1.367,0.858,1.592,1.087,0.473,0.833,0.800,�k��,4.3,��
2018/04/19,04:10,0.826,1.367,0.859,1.589,1.089,0.472,0.830,0.800,�k��,3.9,��
2018/04/19,04:20,0.825,1.368,0.858,1.588,1.088,0.474,0.833,0.798,�k��,2.8,��
2018/04/19,04:30,0.827,1.368,0.857,1.591,1.089,0.473,0.833,0.799,���k��,2.0,��
2018/04/19,04:40,0.826,1.369,0.856,1.590,1.087,0.473,0.831,0.800,���쐼,0.6,��
2018/04/19,04:50,0.828,1.367,0.858,1.589,1.088,0.474,0.832,0.799,���쐼,1.1,��
2018/04/19,05:00,0.826,1.368,0.859,1.589,1.088,0.472,0.832,0.799,���k��,1.5,��
2018/04/19,05:10,0.825,1.367,0.857,1.593,1.089,0.473,0.833,0.800,�k��,1.9,��
2018/04/19,05:20,0.826,1.367,0.859,1.590,1.085,0.473,0.832,0.802,���k��,1.5,��
2018/04/19,05:30,0.826,1.367,0.856,1.590,1.089,0.471,0.834,0.799,���k��,1.5,��
2018/04/19,05:40,0.827,1.367,0.858,1.591,1.087,0.470,0.830,0.799,�k��,1.4,��
2018/04/19,05:50,0.826,1.369,0.857,1.591,1.088,0.473,0.832,0.800,�k�k��,1.2,��
2018/04/19,06:00,0.826,1.368,0.857,1.589,1.090,0.472,0.833,0.798,�k�k��,1.5,��
2018/04/19,06:10,0.827,1.370,0.858,1.591,1.089,0.473,0.834,0.801,�k�k��,2.3,��
2018/04/19,06:20,0.829,1.369,0.861,1.591,1.087,0.472,0.834,0.799,�k��,1.7,��
2018/04/19,06:30,0.827,1.371,0.858,1.591,1.088,0.472,0.835,0.800,�k��,2.0,��
2018/04/19,06:40,0.828,1.370,0.860,1.591,1.091,0.473,0.834,0.800,�k��,1.5,��
2018/04/19,06:50,0.827,1.371,0.858,1.593,1.090,0.472,0.834,0.800,�k��,1.5,��
2018/04/19,07:00,0.827,1.372,0.860,1.591,1.090,0.473,0.833,0.800,�k��,1.7,��
2018/04/19,07:10,0.827,1.373,0.860,1.592,1.091,0.473,0.833,0.802,�k��,0.6,��
2018/04/19,07:20,0.829,1.370,0.859,1.591,1.089,0.472,0.835,0.799,-,CALM,��
2018/04/19,07:30,0.831,1.371,0.861,1.592,1.091,0.473,0.834,0.802,���쓌,0.9,��
2018/04/19,07:40,0.830,1.373,0.861,1.592,1.090,0.473,0.835,0.802,�쓌,0.9,��
2018/04/19,07:50,0.829,1.375,0.862,1.592,1.089,0.472,0.835,0.802,��쓌,1.4,��
2018/04/19,08:00,0.833,1.374,0.863,1.591,1.091,0.472,0.835,0.801,�쓌,1.5,��
2018/04/19,08:10,0.831,1.375,0.862,1.594,1.090,0.472,0.837,0.805,���쓌,1.4,��
2018/04/19,08:20,0.831,1.375,0.861,1.592,1.093,0.472,0.836,0.802,�쓌,1.2,��
2018/04/19,08:30,0.832,1.375,0.859,1.594,1.093,0.471,0.835,0.801,��쓌,1.7,��
2018/04/19,08:40,0.833,1.375,0.861,1.592,1.093,0.472,0.833,0.801,��쓌,3.1,��
2018/04/19,08:50,0.833,1.376,0.861,1.597,1.096,0.472,0.833,0.800,��쓌,2.5,��
2018/04/19,09:00,0.833,1.376,0.864,1.598,1.093,0.473,0.834,0.799,��쓌,3.0,��
2018/04/19,09:10,0.832,1.377,0.862,1.598,1.096,0.471,0.834,0.801,��쓌,3.3,��
2018/04/19,09:20,0.834,1.380,0.862,1.600,1.096,0.473,0.835,0.800,��쓌,3.3,��
2018/04/19,09:30,0.833,1.377,0.863,1.596,1.097,0.472,0.837,0.799,��쓌,4.0,��
2018/04/19,09:40,0.833,1.381,0.862,1.594,1.098,0.472,0.836,0.799,��쓌,4.0,��
2018/04/19,09:50,0.835,1.381,0.865,1.598,1.098,0.473,0.835,0.800,��쓌,4.7,��
2018/04/19,10:00,0.835,1.385,0.863,1.596,1.101,0.473,0.838,0.802,��쓌,4.9,��
2018/04/19,10:10,0.838,1.385,0.858,1.597,1.102,0.474,0.836,0.801,��쓌,5.1,��
2018/04/19,10:20,0.836,1.384,0.861,1.601,1.103,0.474,0.837,0.802,�쓌,5.1,��
2018/04/19,10:30,0.837,1.386,0.863,1.592,1.104,0.474,0.837,0.802,�쓌,4.2,��
2018/04/19,10:40,0.835,1.387,0.864,1.600,1.103,0.475,0.838,0.801,�쓌,4.5,��
2018/04/19,10:50,0.838,1.390,0.865,1.599,1.093,0.476,0.838,0.800,�쓌,3.7,��
2018/04/19,11:00,0.840,1.388,0.867,1.603,1.100,0.476,0.838,0.804,�쓌,4.5,��
2018/04/19,11:10,0.837,1.391,0.867,1.603,1.104,0.476,0.837,0.802,��쓌,6.3,��
2018/04/19,11:20,0.839,1.392,0.867,1.603,1.105,0.475,0.838,0.801,��쓌,6.7,��
2018/04/19,11:30,0.842,1.395,0.867,1.605,1.107,0.476,0.839,0.802,�쓌,5.8,��
2018/04/19,11:40,0.840,1.397,0.866,1.605,1.109,0.476,0.841,0.803,��쓌,6.9,��
2018/04/19,11:50,0.838,1.396,0.867,1.601,1.109,0.477,0.839,0.802,��쓌,5.9,��
2018/04/19,12:00,0.840,1.399,0.867,1.602,1.112,0.477,0.839,0.802,��쓌,5.6,��
2018/04/19,12:10,0.840,1.398,0.869,1.603,1.112,0.478,0.839,0.804,�쓌,7.1,��
2018/04/19,12:20,0.842,1.401,0.868,1.602,1.111,0.477,0.839,0.804,��쓌,8.1,��
2018/04/19,12:30,0.842,1.400,0.869,1.601,1.112,0.479,0.840,0.804,��쓌,7.9,��
2018/04/19,12:40,0.842,1.400,0.868,1.605,1.110,0.478,0.840,0.802,��쓌,7.5,��
2018/04/19,12:50,0.839,1.400,0.869,1.605,1.110,0.477,0.839,0.803,��쓌,6.3,��
2018/04/19,13:00,0.844,1.402,0.868,1.608,1.113,0.478,0.839,0.803,��쓌,7.0,��
2018/04/19,13:10,0.844,1.403,0.869,1.607,1.114,0.478,0.840,0.804,��쓌,5.7,��
2018/04/19,13:20,0.842,1.403,0.871,1.609,1.115,0.478,0.840,0.804,��쓌,6.5,��
2018/04/19,13:30,0.843,1.400,0.870,1.609,1.116,0.479,0.840,0.804,��쓌,7.3,��
2018/04/19,13:40,0.843,1.401,0.871,1.610,1.117,0.479,0.840,0.804,��쓌,8.4,��
2018/04/19,13:50,0.844,1.405,0.871,1.612,1.116,0.478,0.840,0.802,��쓌,9.0,��
2018/04/19,14:00,0.845,1.403,0.873,1.612,1.116,0.478,0.841,0.805,��쓌,8.9,��
2018/04/19,14:10,0.844,1.405,0.871,1.611,1.116,0.479,0.841,0.806,��쓌,9.3,��
2018/04/19,14:20,0.846,1.404,0.872,1.613,1.115,0.479,0.842,0.805,��쓌,9.5,��
2018/04/19,14:30,0.845,1.401,0.875,1.611,1.120,0.479,0.843,0.806,��쓌,8.9,��
2018/04/19,14:40,0.844,1.403,0.874,1.612,1.119,0.478,0.841,0.804,��쓌,10.5,��
2018/04/19,14:50,0.844,1.402,0.872,1.612,1.117,0.481,0.841,0.806,��쓌,8.9,��
2018/04/19,15:00,0.845,1.405,0.876,1.611,1.118,0.479,0.842,0.804,��쓌,10.5,��
2018/04/19,15:10,0.845,1.405,0.872,1.609,1.118,0.481,0.842,0.805,��쓌,11.0,��
2018/04/19,15:20,0.846,1.406,0.874,1.606,1.121,0.479,0.843,0.805,��쓌,11.6,��
2018/04/19,15:30,0.845,1.405,0.874,1.609,1.121,0.481,0.841,0.805,��쓌,11.7,��
2018/04/19,15:40,0.846,1.405,0.873,1.612,1.120,0.480,0.840,0.804,��쓌,13.0,��
2018/04/19,15:50,0.845,1.405,0.876,1.612,1.118,0.482,0.842,0.805,��,12.4,��
2018/04/19,16:00,0.847,1.407,0.873,1.615,1.119,0.479,0.841,0.805,��,11.6,��
2018/04/19,16:10,0.845,1.407,0.875,1.609,1.120,0.480,0.842,0.805,��쓌,12.5,��
2018/04/19,16:20,0.847,1.403,0.872,1.610,1.119,0.481,0.842,0.805,��쓌,14.2,��
2018/04/19,16:30,0.846,1.406,0.872,1.610,1.120,0.482,0.841,0.804,��,12.8,��
2018/04/19,16:40,0.846,1.406,0.875,1.608,1.117,0.484,0.842,0.805,��쓌,13.8,��
2018/04/19,16:50,0.845,1.411,0.872,1.610,1.118,0.482,0.841,0.804,��쓌,14.1,��
2018/04/19,17:00,0.846,1.408,0.873,1.613,1.120,0.481,0.844,0.805,��,12.1,��
2018/04/19,17:10,0.847,1.411,0.875,1.611,1.121,0.482,0.844,0.805,��,10.5,��
2018/04/19,17:20,0.847,1.409,0.876,1.613,1.120,0.482,0.842,0.807,��,8.3,��
2018/04/19,17:30,0.847,1.410,0.873,1.614,1.117,0.481,0.840,0.804,��,8.9,��
2018/04/19,17:40,0.847,1.407,0.873,1.612,1.118,0.480,0.842,0.807,��,10.5,��
2018/04/19,17:50,0.845,1.408,0.874,1.613,1.119,0.483,0.842,0.807,��,10.7,��
2018/04/19,18:00,0.848,1.411,0.874,1.615,1.120,0.483,0.842,0.808,��,9.5,��
2018/04/19,18:10,0.849,1.409,0.875,1.616,1.120,0.482,0.841,0.808,��,10.8,��
2018/04/19,18:20,0.850,1.406,0.879,1.618,1.118,0.483,0.841,0.809,��,9.4,��
2018/04/19,18:30,0.851,1.411,0.878,1.617,1.120,0.483,0.842,0.808,��,8.6,��
2018/04/19,18:40,0.849,1.411,0.879,1.617,1.118,0.484,0.843,0.808,��,8.3,��
2018/04/19,18:50,0.848,1.409,0.877,1.616,1.121,0.484,0.842,0.807,��,8.7,��
2018/04/19,19:00,0.851,1.410,0.878,1.617,1.120,0.482,0.842,0.810,��,8.3,��
2018/04/19,19:10,0.852,1.408,0.878,1.616,1.123,0.483,0.841,0.808,��,7.4,��
2018/04/19,19:20,0.850,1.409,0.878,1.616,1.125,0.484,0.843,0.809,��,7.5,��
2018/04/19,19:30,0.849,1.407,0.877,1.615,1.123,0.484,0.846,0.807,��,7.8,��
2018/04/19,19:40,0.850,1.409,0.876,1.616,1.122,0.484,0.844,0.809,��쐼,5.9,��
2018/04/19,19:50,0.849,1.408,0.878,1.616,1.124,0.482,0.845,0.807,��,5.6,��
2018/04/19,20:00,0.849,1.410,0.877,1.615,1.121,0.483,0.845,0.809,��,4.5,��
2018/04/19,20:10,0.848,1.408,0.879,1.618,1.121,0.483,0.845,0.808,��,4.1,��
2018/04/19,20:20,0.849,1.407,0.878,1.614,1.121,0.481,0.844,0.809,��쐼,4.0,��
2018/04/19,20:30,0.849,1.408,0.877,1.616,1.122,0.482,0.843,0.807,��쐼,3.3,��
2018/04/19,20:40,0.849,1.408,0.880,1.615,1.122,0.482,0.846,0.809,��쐼,3.4,��
2018/04/19,20:50,0.850,1.407,0.880,1.617,1.120,0.482,0.844,0.808,��,2.9,��
2018/04/19,21:00,0.850,1.406,0.877,1.619,1.124,0.483,0.842,0.810,��쓌,2.3,��
2018/04/19,21:10,0.850,1.409,0.877,1.615,1.121,0.482,0.844,0.807,��,0.9,��
2018/04/19,21:20,0.848,1.409,0.876,1.615,1.122,0.483,0.842,0.808,��쓌,1.2,��
2018/04/19,21:30,0.847,1.406,0.878,1.615,1.123,0.481,0.842,0.807,-,CALM,��
2018/04/19,21:40,0.850,1.405,0.878,1.615,1.124,0.482,0.842,0.807,��,1.5,��
2018/04/19,21:50,0.847,1.407,0.877,1.617,1.122,0.481,0.842,0.807,���k��,1.5,��
2018/04/19,22:00,0.848,1.409,0.876,1.615,1.121,0.483,0.842,0.807,�k��,2.0,��
2018/04/19,22:10,0.848,1.408,0.878,1.617,1.124,0.484,0.842,0.807,�k��,1.5,��
2018/04/19,22:20,0.850,1.408,0.878,1.616,1.121,0.482,0.842,0.807,�k��,1.7,��
2018/04/19,22:30,0.847,1.406,0.879,1.617,1.122,0.481,0.844,0.807,�k�k��,1.7,��
2018/04/19,22:40,0.848,1.405,0.877,1.616,1.120,0.481,0.843,0.807,�k�k��,1.4,��
2018/04/19,22:50,0.849,1.407,0.876,1.619,1.120,0.482,0.843,0.807,���k��,0.9,��
2018/04/19,23:00,0.848,1.407,0.875,1.618,1.121,0.482,0.841,0.808,�k��,2.3,��
2018/04/19,23:10,0.849,1.406,0.875,1.617,1.121,0.482,0.842,0.808,�k�k��,2.3,�L
2018/04/19,23:20,0.847,1.404,0.878,1.619,1.124,0.481,0.843,0.806,�k�k��,3.0,�L
2018/04/19,23:30,0.847,1.406,0.878,1.618,1.125,0.480,0.845,0.810,�k,2.5,�L
2018/04/19,23:40,0.848,1.406,0.877,1.619,1.121,0.484,0.841,0.808,�k�k��,3.5,�L
2018/04/19,23:50,0.846,1.406,0.878,1.616,1.122,0.482,0.844,0.809,���k��,2.0,�L
